Fort Myers, FL

6:39 PM EST on December 04, 2016 (GMT -0500)
Southwest Florida International

Weather History for KRSW - February, 2013

Change the Weather History Date:

Tuesday, February 19, 2013

  Actual Average Record
Temperature  
Mean Temperature 65 °F -  
Max Temperature 79 °F 76 °F 89 °F (1944)
Min Temperature 51 °F 56 °F 34 °F (1958)
Growing Degree Days 15 (Base 50)    
Moisture  
Dew Point 55 °F    
Average Humidity 74    
Maximum Humidity 93    
Minimum Humidity 50    
Precipitation  
Precipitation 0.00 in - - ()
Sea Level Pressure  
Sea Level Pressure 30.15 in    
Wind  
Wind Speed 4 mph (South)    
Max Wind Speed 14 mph    
Max Gust Speed 18 mph    
Visibility 10 miles    
Events      
Averages and records for this station are not official NWS values.
T = Trace of Precipitation, MM = Missing Value Source: NWS Daily Summary

Daily Weather History Graph

Daily Weather History Graph

Search for Another Location

Airport or City:

Trip Planner

Search our weather history database for the weather conditions in past years. The results will help you decide how hot, cold, wet, or windy it might be!

Date:

Astronomy

Feb. 19, 2013 Rise Set
Actual Time 6:59 AM EST 6:22 PM EST
Civil Twilight 6:36 AM EST 6:45 PM EST
Nautical Twilight 6:08 AM EST 7:13 PM EST
Astronomical Twilight 5:42 AM EST 7:39 PM EST
Moon 1:09 PM EST (2/19) 2:13 AM EST (2/19)
Length of Visible Light 12h 09m
Length of Day
11h 22m
Waxing Gibbous, 67% of the Moon is Illuminated
Feb 19
Waxing Gibbous
Feb 25
Full
Mar 4
Last Quarter
Mar 11
New
Mar 19
First Quarter

Hourly Weather History & Observations

Time (EST) Temp. Dew Point Humidity Pressure Visibility Wind Dir Wind Speed Gust Speed Precip Events Conditions
12:53 AM 54.0 °F 48.0 °F 80% 30.21 in 10.0 mi NE 3.5 mph - N/A   Clear
1:53 AM 52.0 °F 46.9 °F 83% 30.19 in 10.0 mi Calm Calm - N/A   Mostly Cloudy
2:53 AM 53.6 °F 48.2 °F 82% 30.18 in 10.0 mi Calm Calm - N/A   Partly Cloudy
3:53 AM 53.1 °F 48.0 °F 83% 30.16 in 10.0 mi NE 3.5 mph - N/A   Partly Cloudy
4:53 AM 52.0 °F 48.9 °F 89% 30.17 in 10.0 mi NE 4.6 mph - N/A   Clear
5:53 AM 51.1 °F 48.9 °F 92% 30.17 in 10.0 mi ENE 4.6 mph - N/A   Mostly Cloudy
6:53 AM 52.0 °F 48.9 °F 89% 30.18 in 10.0 mi Calm Calm - N/A   Clear
7:53 AM 54.0 °F 51.1 °F 90% 30.18 in 10.0 mi East 4.6 mph - N/A   Clear
8:53 AM 63.0 °F 54.0 °F 72% 30.19 in 10.0 mi SE 4.6 mph - N/A   Clear
9:53 AM 71.1 °F 55.9 °F 59% 30.18 in 10.0 mi SSE 9.2 mph - N/A   Clear
10:53 AM 73.9 °F 57.0 °F 55% 30.18 in 10.0 mi SE 13.8 mph 18.4 mph N/A   Clear
11:53 AM 75.9 °F 57.9 °F 54% 30.18 in 10.0 mi SW 8.1 mph - N/A   Scattered Clouds
1:53 PM 78.1 °F 57.9 °F 50% 30.12 in 10.0 mi WSW 6.9 mph 18.4 mph N/A   Overcast
2:53 PM 79.0 °F 59.0 °F 50% 30.12 in 10.0 mi WSW 10.4 mph - N/A   Mostly Cloudy
3:53 PM 78.1 °F 60.1 °F 54% 30.10 in 10.0 mi WSW 10.4 mph - N/A   Mostly Cloudy
4:53 PM 75.9 °F 60.1 °F 58% 30.10 in 10.0 mi SW 12.7 mph - N/A   Partly Cloudy
5:53 PM 73.9 °F 61.0 °F 64% 30.10 in 10.0 mi WSW 8.1 mph - N/A   Clear
7:53 PM 66.9 °F 61.0 °F 81% 30.12 in 10.0 mi SW 4.6 mph - N/A   Clear
8:53 PM 66.9 °F 62.1 °F 84% 30.12 in 10.0 mi Calm Calm - N/A   Clear
9:53 PM 64.9 °F 61.0 °F 87% 30.12 in 10.0 mi Calm Calm - N/A   Clear
10:53 PM 63.0 °F 60.1 °F 90% 30.12 in 10.0 mi Calm Calm - N/A   Clear
11:53 PM 61.0 °F 59.0 °F 93% 30.11 in 9.0 mi Calm Calm - N/A   Clear